Observer details:
595 Farra d'Isonzo.  Observer E. Pettarin.  0.40-m f/3.3 reflector + CMO.
691 Steward Observatory, Kitt Peak-Spacewatch.  Observer M. T. Read.  0.9-m
    f/3 reflector + CCD.
958 Observatoire de Dax.  Observer P. Dupouy.  0.50-m f/4.5 Reflector + CMO.
C40 Kuban State University Astrophysical Observatory.  Observers A. Ivanov, A.
    Barcov, V. Ivanov, V. Lysenko, N. Yakovenko, N. Ivanova, N. Gorbunov, G.
    Kurbatov, P. Shchukin, V. Roshchupko.  Measurer A. Ivanov.  0.51-m f/8
    reflector + CCD.
G02 KYSUCE Observatory, Kysucke Nove Mesto.  Observer M. Urbanik.  0.40-m
    f/6.8 Corrected Dall-Kirkham + CCD.
G96 Mt. Lemmon Survey.  Observer J. B. Fazekas.  Measurers E. C. Beshore, D.
    Fay, J. B. Fazekas, D. C. Fuls, A. R. Gibbs, A. D. Grauer, H. Groeller, J.
    K. Hogan, R. A. Kowalski, S. M. Larson, G. J. Leonard, D. Rankin, R. L.
    Seaman, F. C. Shelly, K. W. Wierzchos.  1.5-m reflector + 10K CCD.
I41 Palomar Mountain--ZTF.  Observers G. Helou, T. A. Prince, K.
    Venkataramani, Q.-Z. Ye, Z. T. F. Collaboration.  Measurers D. A. Duev,
    H.-W. Lin, A. A. Mahabal, F. J. Masci, Q.-Z. Ye.  1.2-m f/2.4 Schmidt +
    ZTF Camera.
J69 North Observatory, Clanfield.  Observer D. Briggs.  0.3-m f/5.4 0.3-m
    f/5.4 Newtonian reflector + CCD + CCD.
J95 Great Shefford.  Observer P. Birtwhistle.  0.41-m f/6.3 Schmidt-Cassegrain
    + CCD.
L04 ROASTERR-1 Observatory, Cluj-Napoca.  Observer L. Hudin.  0.3-m f/5
    reflector + CCD.
L18 QOS Observatory, Zalistsi.  Observers S. V. Rischenko, T. A. Bezluschenko.
    Measurer A. M. Kozhukhov.  0.50-m f/3.8 reflector + CCD.
L99 Novosilky.  Observer S. P. Tsvihun.  Measurer A. M. Kozhukhov.  0.30-m
    f/1.0 astrograf + CMO.
M32 Sunny Transcarpathian, Mukachevo.  Observer O. Vasiltsun.  Measurers O.
    Vasiltsun, O. Briukhovetskyi.  0.35-m f/2.0 astrograf + CCD.
M49 IAS Remote Observatory, Hakos.  Observers D. Husar, M. Junius.  Measurer
    M. Junius.  0.25-m f/4.5 reflector + CMO.
M63 RPF Observatory, Gagliano del Capo.  Observer D. Licchelli.  0.30-m f/5.3
    reflector + CCD.
N87 Nanshan Station, Xinjiang Observatory.  Observers M. Zhang, G.-Y. Sun,
    W.-J. Zhou, Z.-S. Yang, Z.-Y. Chen, L.-M. Tang, X. Liao, X. Gao, A.
    Iskandar, G.-J. Feng, C.-H. Bai, A. Esamdin, L. Ma, N. Wang.  Measurer M.
    Zhang.  1.0-m f/2.2 reflector + CCD.
N89 Xingming Observatory #2, Nanshan.  Observer X. Gao.  Measurer Z. Chen.
    0.5-m f/4 reflector + CCD.
O85 LiShan Observatory, Lintong.  Observers Y. Yu, K. Tang, A. Pomazan.
    0.50-m f/7.0 Cassegrain + CCD.
Q62 iTelescope Observatory, Siding Spring.  Observer H. Sato.  0.51-m f/6.8
    astrograph + CCD + f/4.5 focal reducer.
Z57 Observatorio Zuben, Alhaurin de la Torre.  Observers C. Malagon, P. Ramos.
    Measurer C. Malagon.  0.30m f/5 Ritchey-Chretien + CCD.
Z80 Northolt Branch Observatory.  Observer G. Wells.  Measurers G. Wells, D.
    Bamberger.  0.25-m f/8.0 Ritchey-Chretien + CCD.

Orbital elements:
2023 VB2                                                 Earth MOID = 0.0003 AU
Epoch 2023 Sept. 13.0 TT = JDT 2460200.5                Veres                   
M 325.77687              (2000.0)            P               Q                  
n   0.34272596     Peri.   74.48677     -0.48089159     -0.87463791             
a   2.0222649      Node    44.42609     +0.76716260     -0.45356493             
e   0.6521223      Incl.    5.02004     +0.42450538     -0.17113557             
P   2.88           H   28.23          G   0.15           U   6                  
Residuals in seconds of arc
231105 I41  0.1-  0.1-    231106 L04  0.3-  0.4-    231106 C40  0.3-  0.5-
231105 I41 (0.3-  0.6-)   231106 L18  0.1+  0.1+    231106 958  0.5-  1.4-
231105 N87  0.2-  0.2+    231106 L18  0.2-  0.1+    231106 J69  0.5+  0.0
231105 N87  0.1-  0.2+    231106 G02  0.2-  0.1+    231106 C40  0.3-  0.4-
231105 N87  0.2+  0.4+    231106 L04  0.4-  0.3+    231106 J69  0.3+  0.0
231106 G96  0.2+  0.2+    231106 M32  0.1-  0.3-    231106 C40  0.1-  0.3-
231106 G96  0.1+  0.1+    231106 M32  0.2-  0.4-    231106 J69  0.4-  0.6+
231106 G96  0.1+  0.1+    231106 G02  0.1-  0.8-    231106 Z80  0.6-  0.0
231106 G96  0.2+  0.1+    231106 M32  0.3-  0.4-    231106 Z80  0.5+  0.1-
231106 691  0.4+  0.3+    231106 M32  0.0   0.1-    231106 L99  0.3+  0.4+
231106 691  0.1+  0.4+    231106 M32  0.5+  0.5+    231106 L99  0.5-  0.4+
231106 691  0.1+  0.5+    231106 G02  0.0   0.1-    231106 L99  0.1-  0.2+
231106 Q62  0.2-  0.2+    231106 595  0.1+  0.4+    231106 L99  0.1+  0.4-
231106 Q62  0.1+  0.4+    231106 595  0.2-  0.5+    231106 J95  0.3+  0.2+
231106 N89  0.4-  0.1-    231106 595  0.1-  0.3+    231106 J95  0.4+  0.3+
231106 N89  0.3-  0.4-    231106 M63  0.1-  0.1+    231106 J95  0.1+  0.4+
231106 O85  0.0   0.1+    231106 M63  0.2-  0.1+    231106 J95  0.3+  0.5+
231106 O85  0.2+  0.4+    231106 M63  0.2-  0.0     231106 M49  0.2+  0.3-
231106 O85  0.2+  0.2+    231106 M63  0.2-  0.1-    231106 M49  0.1+  0.4-
231106 N89  0.3-  0.1+    231106 M63  0.3-  0.1-    231106 M49  0.3+  0.3-
231106 O85  0.2+  0.1+    231106 M63  0.0   0.1+    231106 Z57  0.0   0.0
231106 O85  0.5+  0.1-    231106 M63  0.2-  0.0     231106 Z57  0.0   0.2+
231106 O85  0.1-  0.2+    231106 M63  0.3-  0.2-    231106 Z57  0.1-  0.1-
231106 L04  0.2-  0.4+    231106 958  0.9-  1.5-    231106 Z57  0.1-  0.1+
231106 L18  0.3+  0.9+    231106 958  0.3+  1.5-
231106 L18  0.0   0.0     231106 J69  0.2-  0.2+

Ephemeris:
2023 VB2                 a,e,i = 2.02, 0.65, 5                   q = 0.7035
Date    TT    R. A. (2000) Decl.     Delta      r    Elong.  Phase     V
2023 10 07    02 26 02.0 +05 28 30   0.3368  1.3140   155.7    18.3    27.4
...
2023 10 22    02 29 32.2 +05 03 25   0.1668  1.1588   167.4    10.8    25.3
...
2023 10 30    02 29 56.2 +04 47 22   0.08357 1.0757   170.5     8.8    23.6
...
2023 11 05    02 29 37.8 +04 18 52   0.02299 1.0143   168.7    11.1    20.8
2023 11 06    02 29 13.2 +03 53 04   0.01297 1.0041   167.7    12.1    19.5
2023 11 07    02 25 58.8 +00 33 55   0.0029490.9941   163.8    16.2    16.4
...
2023 11 13    14 26 24.0 -00 49 47   0.05733 0.9362    20.1   158.7    32.4
...
2023 11 21    14 27 29.1 -01 07 31   0.1395  0.8652    26.3   149.6    32.0
...
2023 12 06    14 36 15.9 -03 08 44   0.3064  0.7640    37.1   128.8    30.7

M. P. C. Staff               (C) Copyright 2023 MPC           M.P.E.C. 2023-V74




More information about the Iaude mailing list